Hourly Data Report for October 05, 2017

All times are specified in Local Standard Time (LST). Add 1 hour to adjust for Daylight Saving Time where and when it is observed.

PORTAGE SOUTHPORT
MANITOBA

49°54'11.300" N
98°17'02.900" W
272.70 m
5012324
71851
WPG

Download Data

Hourly Data (October 2017)
Hourly Data Report for October 5, 2017
Temp Definition
°C
Dew Point Temp Definition
°C
Rel Hum Definition
%
Wind Dir Definition
10's deg

Wind Spd Definition
km/h
Visibility Definition
km
Stn Press Definition
kPa
Hmdx Definition


Wind Chill Definition


Weather Definition


TIME
00:00 5.1 1.6 78 25 8   98.67     LegendNANA
01:00 4.5 0.8 77 24 8   98.69     LegendNANA
02:00 4.0 0.3 77 25 9   98.73     LegendNANA
03:00 3.4 -0.1 78 28 10   98.74     LegendNANA
04:00 2.1 -0.1 85 26 8   98.76     LegendNANA
05:00 1.4 -0.2 89 26 9   98.79     LegendNANA
06:00 1.6 0.2 90 25 10   98.79     LegendNANA
07:00 1.7 0.4 91 25 5   98.83     LegendNANA
08:00 4.6 1.9 83 31 11   98.84     LegendNANA
09:00 6.8 2.9 76 30 9   98.87     LegendNANA
10:00 8.8 3.4 69 31 10   98.87     LegendNANA
11:00 10.2 2.3 58 31 11   98.87     LegendNANA
12:00 10.7 1.1 51 31 12   98.86     LegendNANA
13:00 12.1 1.6 49 28 11   98.78     LegendNANA
14:00 12.4 -0.8 40 28 13   98.72     LegendNANA
15:00 13.1 -1.0 38 30 13   98.69     LegendNANA
16:00 13.2 -0.7 38 32 11   98.64     LegendNANA
17:00 13.3 0.2 41 29 5   98.60     LegendNANA
18:00 9.6 1.6 58 22 3   98.58     LegendNANA
19:00 4.8 1.8 80 9 5   98.56     LegendNANA
20:00 6.1 1.6 73 16 4   98.56     LegendNANA
21:00 3.2 1.5 89 18 4   98.53     LegendNANA
22:00 6.6 1.2 68 21 10   98.50     LegendNANA
23:00 6.6 1.0 67 21 13   98.48     LegendNANA

Notes on Data Quality.

Legend

  • E = Estimated
  • M = Missing
  • NA = Not Available
  • ‡ = Partner data that is not subject to review by the National Climate Archives
Date modified: